Location: Grasslands National Park East Block
(49.0708°N, 106.5295°W)
Time: 09:22:33
(UTC-06:00)

Vanguard 1 Rocket - Pass Details

Date: 22 September 2019
Orbit: 650 x 4226 km, 34.3° (Epoch: 20 October)

Event Time Altitude Azimuth Distance (km) Brightness Sun altitude
Rises 18:22:25 0° 232° (SW) 8,434 13.5 6.0°
Reaches altitude 10° 18:29:06 10° 227° (SW) 7,229 12.9 4.9°
Maximum altitude 18:49:21 41° 168° (SSE) 3,880 10.6 1.6°
Drops below altitude 10° 19:01:35 10° 104° (ESE) 4,491 10.3 -0.4°
Enters shadow 19:04:22 - 97° (E) 5,052 10.5 -0.8°
Sets 19:04:35 0° 97° (E) 5,102 - -0.9°
